This demonstration page uses our WeatherBlox Daily Observations layout. Learn more.

Left ArrowRight Arrow

41.55636, -103.73856

Hourly Observations for January 25, 2022

Temp ( °F °C ) Dew Point ( °F °C ) Humidity (%) Winds ( mph kmh ) Pressure ( in mb ) Visibility ( mi km ) Precip ( " mm )
12:58 am 00:58 Cloudy with Light Snow 29 -1.5 29 -1.9 97 97 Calm 30.09 1019 7 11 0.02 0.51
1:58 am 01:58 Mostly Cloudy with Light Snow 29 -1.7 28 -2.1 97 97 NNE 6 9 30.10 1019 2 4 0.02 0.51
2:58 am 02:58 Mostly Cloudy with Light Snow 28 -2 27 -2.6 96 96 N 6 9 30.13 1020 9 14 0.01 0.25
3:58 am 03:58 Mostly Cloudy with Light Snow 28 -2.2 26 -3.1 94 94 Calm 30.14 1021 7 11 0.00 0.00
4:58 am 04:58 Mostly Cloudy with Light Snow Showers 27 -2.6 26 -3.1 96 96 NW 5 7 30.18 1022 5 8 0.00 0.00
5:58 am 05:58 Mostly Cloudy 27 -3 26 -3.4 97 97 WNW 6 9 30.20 1023 10 16 0.00 0.00
6:58 am 06:58 Mostly Cloudy 27 -3 26 -3.6 96 96 NW 9 15 30.23 1024 10 16 0.00 0.00
7:58 am 07:58 Mostly Cloudy 26 -3.6 23 -5 90 90 NNW 9 15 30.26 1025 10 16 0.00 0.00
8:58 am 08:58 Mostly Cloudy 28 -2.4 23 -5.2 81 81 N 13 20 30.27 1025 10 16 0.00 0.00
9:58 am 09:58 Mostly Cloudy 27 -2.6 24 -4.6 86 86 N 9 15 30.32 1027 10 16 0.00 0.00
10:58 am 10:58 Cloudy 28 -2 22 -5.8 76 76 NNE 17 28 30.33 1027 10 16 0.00 0.00
11:58 am 11:58 Cloudy 28 -2.4 22 -5.6 79 79 NNE 10 17 30.33 1027 10 16 0.00 0.00
12:58 pm 12:58 Mostly Cloudy 27 -2.7 22 -5.8 79 79 NE 10 17 30.33 1027 10 16 0.00 0.00
1:58 pm 13:58 Mostly Cloudy with Light Snow 27 -3 21 -6.2 79 79 NE 12 19 30.33 1027 10 16 0.00 0.00
2:58 pm 14:58 Mostly Cloudy with Light Snow Showers 26 -3.1 20 -6.9 75 75 ENE 7 11 30.35 1028 10 16 0.00 0.00
3:58 pm 15:58 Mostly Cloudy 26 -3.5 20 -6.8 78 78 SE 7 11 30.36 1028 10 16 0.00 0.00
4:58 pm 16:58 Cloudy 25 -4 20 -6.9 80 80 S 8 13 30.36 1028 10 16 0.00 0.00
5:58 pm 17:58 Cloudy 24 -4.4 19 -7 82 82 S 9 15 30.38 1029 10 16 0.00 0.00
6:58 pm 18:58 Mostly Cloudy 18 -7.7 15 -9.5 87 87 SSW 9 15 30.40 1030 10 16 0.00 0.00
7:58 pm 19:58 Clear 18 -7.8 16 -9 91 91 SW 14 22 30.40 1030 10 16 0.00 0.00
8:58 pm 20:58 Clear 17 -8.3 15 -9.6 90 90 SSW 13 20 30.38 1029 10 16 0.00 0.00
9:58 pm 21:58 Clear 15 -9.2 12 -11.2 86 86 SSW 17 28 30.37 1029 10 16 0.00 0.00
10:58 pm 22:58 Clear 17 -8.5 12 -10.9 83 83 SSW 16 26 30.34 1027 10 16 0.00 0.00
11:58 pm 23:58 Clear 17 -8.4 13 -10.6 84 84 SSW 17 28 30.31 1026 10 16 0.00 0.00

Powered by AerisWeather